Starlink 30113

operational
NORAD ID: 56291 Int'l Des: 2023-056 Owner: SPXS Country: US Constellation: starlink
LEOCIRCULAR

Starlink 30113について

説明を読み込み中...

リアルタイム位置

3D地球を読み込み中...

次回通過

高度履歴

Altitude vs Time

uPlot chart will show altitude changes over time

軌道要素

1 56291U 23056F 25305.36902382 .00000544 00000-0 55309-4 0 9996
2 56291 42.9991 187.3195 0001522 278.0373 82.0297 15.02532470140724
Epoch: Nov 1, 2025 • Age: 31 hours

現在のステータス

高度 562.0 km
速度 7.59 km/s
衛星直下点 38.15°N, 36.7°W
打ち上げ日 Apr 19, 2023
運用期間 2.5 years
タイプ internet

技術仕様

分類 Payload
質量 730.00 kg
乾燥質量 700.00 kg
総質量 730.00 kg
長さ 0.30 m
直径 4.10 m
スパン 29.00 m
形状 Box + pan
製造者 SPXS
バスタイプ Starlink V2M
フェーズステータス In Orbit
所有者/国 SPXS/US

大規模コンステレーション

Loading constellations...